User: anonymous   Login
Location: Homewood
(41.1836°S, 175.9581°E)
Time: 04:36:16
(UTC+00:00)
Language:

Cosmos 2082 Rocket - Orbit

View from above orbital plane
View from above orbital plane
View from above satellite
View from above satellite

Ground track
Ground track

The orbit data is extracted from the following two-line orbital elements,

1 20625U 90046B   24174.39761483  .00000107  00000-0  80034-4 0  9990
2 20625  70.9969 170.9774 0014369 183.4563 176.6463 14.14837528759945
Epoch (UTC): 22 June 2024 09:32:33
Eccentricity: 0.0014369
inclination: 70.9969°
perigee height: 832 km
apogee height: 853 km
right ascension of ascending node: 170.9774°
argument of perigee: 183.4563°
revolutions per day: 14.14837528
mean anomaly at epoch: 176.6463°
orbit number at epoch: 75994

The dashed part of the orbit path shows where the satellite is in the earth's shadow,  

DLR